Location: Cactus School
(34.5700°N, 118.0931°W)
Time: 08:38:27
(UTC-07:00)

Vanguard 2 - Pass Details

Date: 01 May 2024
Orbit: 553 x 2914 km, 32.9° (Epoch: 22 May)

Event Time Altitude Azimuth Distance (km) Brightness Sun altitude
Exits shadow 02:42:09 30° 272° (W) 3,399 10.5 -33.4°
Maximum altitude 02:50:49 80° 190° (S) 2,628 9.9 -32.4°
Drops below altitude 10° 03:08:41 10° 107° (ESE) 5,732 12.2 -30.2°
Sets 03:13:05 0° 107° (ESE) 6,700 12.6 -29.6°
